sat.trackr.live / text

‹ back to catalog

STARLINK-37664

NORAD 69044 · 2026-101V

PAYLOAD ACTIVE UNKNOWN

§ Identity

Operator
Country
US
Launch date
2026-05-06
Launch site
AFWTR
Launch vehicle
Mass (kg)
RCS (m²)

Purposes: comms

External: N2YO · Heavens-Above · Gunter

§ Orbital elements

Epoch: 2026-09-20T01:40:03.076320Z

Period
93.91 min
Inclination
97.2846°
Eccentricity
0.0001893
Mean motion
15.33455663 rev/d
Perigee alt
464.2 km
Apogee alt
466.8 km
Semi-major
6,843.6 km
B*
4.9296e-4
RAAN
116.5704°
Arg perigee
89.4788°
Mean anomaly
270.6672°
Rev number
2,111

§ Raw data

STARLINK-376641 69044U 26101V   26263.06948005  .00015879  00000+0  49296-3 0  99962 69044  97.2846 116.5704 0001893  89.4788 270.6672 15.33455663 21116

JSON: /api/v1/satellites/69044 · /tle

For live sub-satellite position, see the globe view (requires WebGL).

§ Visibility from observer

Set your observer location to see the next 7 days of passes ≥ 10°. The values pass through the URL so the page stays shareable.

No JS? Fill the form by hand. The geolocation button needs JavaScript.